Overview Statistics Trail Chart Weather Telemetry Raw packets
 

This is the latest recevied weather packets stored in our database for station/object VK5GR-12. If no packets are shown the sender has not sent any weather packets the latest 10 day(s).

<< 12 13 14 15 16 17 18 >>
Time Temp. Humidity Pressure Rain* Wind** Luminosity Snow
1788362125 12.78° C 76% 1015.9 hPa 0 mm - 0 W/m² -
1788361221 12.22° C 78% 1015.8 hPa 0 mm - 0 W/m² -
1788360319 12.22° C 77% 1015.9 hPa 0 mm - 0 W/m² -
1788359416 12.22° C 79% 1016 hPa 0 mm - 0 W/m² -
1788358512 12.22° C 79% 1016.1 hPa 0 mm - 0 W/m² -
1788357609 12.22° C 79% 1016.3 hPa 0 mm - 0 W/m² -
1788356705 12.22° C 80% 1016.3 hPa 0 mm - 0 W/m² -
1788355801 11.67° C 84% 1016.3 hPa 0 mm - 0 W/m² -
1788354898 11.67° C 86% 1016.3 hPa 0 mm - 0 W/m² -
1788353995 11.67° C 87% 1016.6 hPa 0 mm - 0 W/m² -
1788353094 11.11° C 85% 1016.5 hPa 0 mm - 0 W/m² -
1788352189 11.11° C 85% 1016.6 hPa 0 mm - 0 W/m² -
1788351287 11.11° C 85% 1016.8 hPa 0 mm - 0 W/m² -
1788350383 11.11° C 86% 1016.7 hPa 0 mm - 0 W/m² -
1788349483 11.11° C 87% 1016.6 hPa 0 mm - 0 W/m² -
1788348579 11.67° C 84% 1016.5 hPa 0 mm - 0 W/m² -
1788347680 11.67° C 82% 1016.3 hPa 0 mm - 0 W/m² -
1788346777 11.67° C 82% 1016.1 hPa 0 mm - 0 W/m² -
1788345874 12.22° C 79% 1016.1 hPa 0 mm - 0 W/m² -
1788344970 12.78° C 72% 1016 hPa 0 mm - 0 W/m² -
1788344069 12.78° C 71% 1015.4 hPa 0 mm - 0 W/m² -
1788343164 12.78° C 68% 1015.6 hPa 0 mm - 0 W/m² -
1788342260 12.78° C 68% 1015.5 hPa 0 mm - 0 W/m² -
1788341360 12.78° C 70% 1015.3 hPa 0 mm - 0 W/m² -
1788340457 12.78° C 72% 1015.2 hPa 0 mm - 0 W/m² -

* Rain latest hour (hover to see other rain measurements)
** Current wind speed in m/s (hover to see current wind gust speed)